Regional Weather Roundup
Issued by NWS

Home | Current Version | Previous Version | Graphics & Text | Print | Product List | Glossary On
Versions: 1 2 3 4 5 6 7 8 9 10 11 12 13 14 15 16 17 18 19 20 21 22 23 24 25 26 27 28 29 30 31 32 33 34 35 36 37 38 39 40 41 42 43 44 45 46 47 48 49 50
000
ASUS43 KIND 140109
RWRIN

WEATHER ROUNDUP FOR INDIANA
NATIONAL WEATHER SERVICE INDIANAPOLIS IN
800 PM EST WED DEC 13 2017

NOTE: "FAIR" INDICATES FEW OR NO CLOUDS BELOW 12,000 FEET WITH NO
SIGNIFICANT WEATHER AND/OR OBSTRUCTIONS TO VISIBILITY.

* - STATION DOES NOT REPORT WEATHER SUCH AS PRECIPITATION OR FOG.

+ - STATION NOT QUALITY CONTROLLED BY THE NATIONAL WEATHER SERVICE.
    USE DATA WITH CAUTION...ESPECIALLY DEWPOINT AND RELATIVE
    HUMIDITY OBSERVATIONS.

INZ001>003-010>013-019-020-140200-
NORTHWEST INDIANA

CITY           SKY/WX    TMP DP  RH WIND       PRES   REMARKS
GARY /AIRPORT/ CLOUDY    32  21  64 NW21G43   29.49R WCI  20
KNOX *+        CLOUDY    34  27  75 NW23G32   29.42R WCI  22
LA PORTE +     CLOUDY    32  25  75 NW23G33   29.42R WCI  19
MICHIGAN CITY+ CLOUDY    32  25  74 NW23G31   29.45R WCI  19
MONTICELLO +   CLOUDY    34  25  69 NW26G39   29.47R WCI  21
RENSSELAER +   CLOUDY    34  23  64 W23G31    29.49R WCI  22
VALPARAISO     CLOUDY    34  25  69 NW20G31   29.45R WCI  23

$$

LMZ046-743>745-140200-
SOUTHERN LAKE MICHIGAN

STATION/POSITION TIME  TEMP    WIND        PRES    WAVE
                       AIR SEA DIR/SP/G            HT
                 (UTC) (F)     (DEG/KT/KT) (MB)    (FT)
BURNS HARBOR     0040   33     310/ 26/ 32  997.3R
MICHIGAN CITY    0040   32     300/ 35/ 39   N/A

$$

INZ004-005-014>016-021>024-140200-
NORTH CENTRAL INDIANA

CITY           SKY/WX    TMP DP  RH WIND       PRES   REMARKS
ELKHART        LGT SNOW  32  28  86 W17G25    29.35R WCI  21
GOSHEN         FLURRIES  33  28  81 NW18G33   29.35R WCI  22
LOGANSPORT +   CLOUDY    34  28  80 W25G36    29.45R WCI  21
ROCHESTER +    CLOUDY    36  30  80 NW25      29.40R WCI  23
SOUTH BEND     LGT SNOW  31  28  89 NW24G31   29.39R FOG     WCI  17
WARSAW +       LGT RAIN  34  30  86 NW25G32   29.36R WCI  21

$$

INZ006>009-017-018-025>027-140200-
NORTHEAST INDIANA

CITY           SKY/WX    TMP DP  RH WIND       PRES   REMARKS
AUBURN +       LGT RAIN  34  32  93 W14       29.31R WCI  24
FORT WAYNE     FLURRIES  35  31  85 W25G32    29.34R WCI  23
HUNTINGTON +   CLOUDY    35  32  90 W14G22    29.36R WCI  25
KENDALLVILLE + LGT SNOW  33  31  94 W13G20    29.32R WCI  23

$$

INZ028-029-035-036-043>045-051>053-140200-
WEST CENTRAL INDIANA

CITY           SKY/WX    TMP DP  RH WIND       PRES   REMARKS
CRAWFORDSVL +  CLOUDY    37  28  72 MISG      29.52R
GREENCASTLE +  CLOUDY    37  30  75 W14G35    29.54R WCI  29
LAFAYETTE      CLOUDY    35  28  75 W23G38    29.50R WCI  23
TERRE HAUTE    CLOUDY    41  30  65 W20G31    29.59R

$$

INZ030>032-037>040-046>048-054>057-064-065-140200-
CENTRAL INDIANA

CITY           SKY/WX    TMP DP  RH WIND       PRES   REMARKS
COLUMBUS       LGT RAIN  41  30  65 W20G35    29.52R
FRANKFORT +    CLOUDY    39  31  73 NW32G40   29.49R WCI  26
GREENWOOD *+   CLOUDY    43  34  71 W26G44    29.49R
INDIANAPOLIS   CLOUDY    40  31  70 W32G45    29.50R WCI  28
-EAGLE CREEK   CLOUDY    40  31  70 W22G39    29.48R WCI  30
KOKOMO +       CLOUDY    36  29  75 W30G41    29.42R WCI  23
MARION +       CLOUDY    36  31  83 W28G35    29.41R WCI  24
MT COMFORT *+  CLOUDY    39  36  87 W37G47    29.46R WCI  26
SHELBYVILLE    CLOUDY    41  31  67 W24G44    29.47R
ZIONSVILLE +   CLOUDY    37  30  78 W28G38    29.47R WCI  24

$$

INZ033-034-041-042-049-050-058-059-140200-
EAST CENTRAL INDIANA

CITY           SKY/WX    TMP DP  RH WIND       PRES   REMARKS
MUNCIE         CLOUDY    39  33  79 W25G37    29.40R WCI  28
RICHMOND +     CLOUDY    37  27  65 W18G28    29.40S WCI  27

$$

INZ060-061-067>069-081>083-085>088-140200-
SOUTHWEST INDIANA

CITY           SKY/WX    TMP DP  RH WIND       PRES   REMARKS
EVANSVILLE     CLOUDY    48  27  44 SW16G25   29.64R
HUNTINGBURG +  CLOUDY    48  27  44 W18       29.61R
WASHINGTON +   CLOUDY    45  32  60 NW22      29.61R

$$

INZ062-063-066-070>080-084-089>092-140200-
SOUTH CENTRAL AND SOUTHEAST INDIANA

CITY           SKY/WX    TMP DP  RH WIND       PRES   REMARKS
BEDFORD +      CLOUDY    46  30  53 W25G35    29.55
BLOOMINGTON    CLOUDY    43  30  60 W22G35    29.55R
MADISON *+     CLOUDY    45  23  42 SW14G24   29.52R
NORTH VERNON + CLOUDY    45  25  45 SW21G29   29.49R
SEYMOUR +      CLOUDY    48  27  43 W23G33    29.52R

$$




USA.gov is the U.S. government's official web portal to all federal, state and local government web resources and services.